Regional Weather Roundup
Issued by NWS

Home | Current Version | Previous Version | Graphics & Text | Print | Product List | Glossary On
Versions: 1 2 3 4 5 6 7 8 9 10 11 12 13 14 15 16 17 18 19 20 21 22 23 24 25 26 27 28 29 30 31 32 33 34 35 36 37 38 39 40 41 42 43 44 45 46 47 48 49 50
000
ASUS43 KFSD 211402
RWRSD

WEATHER ROUNDUP FOR SOUTH DAKOTA
NATIONAL WEATHER SERVICE SIOUX FALLS SD
900 AM CDT TUE OCT 21 2014

NOTE: "FAIR" INDICATES FEW OR NO CLOUDS BELOW 12,000 FEET WITH NO
SIGNIFICANT WEATHER AND/OR OBSTRUCTIONS TO VISIBILITY.


SDZ001>005-009-010-012>017-211500-
NORTHWEST AND NORTH CENTRAL SOUTH DAKOTA

CITY           SKY/WX    TMP DP  RH WIND       PRES   REMARKS
FAITH            N/A     48  40  73 S17       29.80R
MOBRIDGE       CLEAR     54  41  61 SE14      29.81F
$$

SDZ012>016-024>037-041>051-057-063-072>074-211500-
SOUTHWEST AND SOUTH CENTRAL SOUTH DAKOTA

CITY           SKY/WX    TMP DP  RH WIND       PRES   REMARKS
RAPID CTY ARPT CLEAR     49  39  68 E5        29.84R
PIERRE         CLEAR     52  41  66 SE17      29.86S
CUSTER         CLEAR     57  35  43 W6        29.97S
ELLSWORTH AFB  CLEAR     54  40  57 S6        29.83R
PHILIP         CLEAR     60  44  55 S15G21    29.84R
PINE RIDGE     CLEAR     55  44  66 S17G29    29.90F
SPEARFISH      FAIR      64  37  36 SW3       29.84S
WINNER         FAIR      59  40  49 S20G29    29.92S
$$

SDZ004>011-016>023-039-040-211500-
NORTHEAST SOUTH DAKOTA

CITY           SKY/WX    TMP DP  RH WIND       PRES   REMARKS
ABERDEEN       CLEAR     53  39  59 SE15      29.94F
WATERTOWN      SUNNY     48  38  68 S17       30.02F
SISSETON         N/A     39  37  92 S10       30.03F
$$

SDZ017-020-022-023-036>040-048>070-211500-
SOUTHEAST SOUTH DAKOTA

CITY           SKY/WX    TMP DP  RH WIND       PRES   REMARKS
SIOUX FALLS    SUNNY     50  40  68 SE8       30.08R
HURON          CLEAR     52  37  56 S14G20    29.97S
CHAMBERLAIN    CLEAR     47  40  76 SE8       29.94S
MITCHELL       SUNNY     51  38  60 SE14      30.01S
YANKTON        SUNNY     43  39  87 E6        30.06S
$$

ABBREVIATIONS USED IN REMARKS
   TC - TEMPERATURE IN CELSIUS
  WCI - WIND CHILL INDEX
   HX - HEAT INDEX
  VSB - VISIBILITY




USA.gov is the U.S. government's official web portal to all federal, state and local government web resources and services.